Weather in Zuyevka

Russia / Samara Oblast     52°44′07″N   51°03′38″E
temp.,
°C
wind,
m/s
gust,
m/s
humid.,
%
clouds,
%
prec.,
mm/h
press.,
hPa
HPBL,
m
3 march, wed
wed301:00−1wsw4897100 0.7 1003330
04:00−1w3497100 0.9 1002146
07:00−4wnw3395100 0.0 100266
10:00−3wnw3695100 0.0 1003196
13:00−2wnw469581 0.1 1004398
16:00−2wnw579090 0.2 1005679
19:00−4nw4994100 0.3 1006437
22:00−7wnw5119398 0.4 1008328
4 march, thu
thu401:00−10w489579 0.0 1008139
04:00−12w479655 0.0 1009116
07:00−13sw599444 0.0 1009144
10:00−9sw7129343 0.0 1009315
13:00−5sw91492100 0.1 1006624
16:00−2sw111794100 0.4 1004956
19:000wsw111797100 1.9 10021055
22:000wsw91593100 1.9 1004883
5 march, fri
fri501:000wsw81496100 0.8 1004734
04:00−2sw71390100 1.0 1004518
07:00−2sw81496100 0.3 1003493
10:00−1sw91596100 2.2 1002704
13:00+1sw816100100 1.5 1001689
16:00+1wsw815100100 2.6 1002618
19:00−3nnw61096100 0.7 1005395
22:00−8nnw349598 0.7 101066
6 march, sat
sat601:00−12nnw239536 0.0 101321
04:00−15n119260 0.0 101520
07:00−13se128689 0.0 101420
10:00−9sse228695 0.0 101494
13:00−6se2282100 0.0 1012247
16:00−6ene1187100 0.0 1009211
19:00−7nw3396100 0.3 100971
22:00−11wnw479682 0.3 1010101
7 march, sun
sun701:00−13wnw489621 0.0 1011142
04:00−16wnw469321 0.0 101284
07:00−19wnw45940 0.0 101474
10:00−16w35920 0.0 1015179
13:00−13sw35900 0.0 1015264
16:00−12ssw58910 0.0 1014296
19:00−12ssw6139361 0.0 1012344
22:00−9ssw8149280 0.0 1010514